Home   Weather   Battle Ground   Past weeks
Flag for USA

Past Weather in Battle Ground, Washington, USA — Yesterday and Last 2 Weeks

Now
44 °F

Clear.


Feels Like: 44 °F
Forecast: 59 / 41 °F
Wind: No wind

Location: Vancouver - Pearson Airpark

Current Time: Oct 23, 2019 at 1:25:18 am

Latest Report: Oct 23, 2019 at 12:53 am


Visibility: 10 mi

Pressure: 30.45 "Hg

Humidity: 85%

Dew Point: 40 °F

Location of Battle GroundLocation

Past Weather in Battle Ground — Graph

°F

Battle Ground Temperature Yesterday

Maximum temperature yesterday: 64 °F (at 2:53 pm)
Minimum temperature yesterday: 45 °F (at 11:53 pm)
Average temperature yesterday: 59 °F

High & Low Weather Summary for the Past Weeks

 TemperatureHumidityPressure
High65 °F (Oct 11, 2:53 pm)96% (Oct 9, 4:53 am)30.44 "Hg (Oct 9, 4:53 am)
Low33 °F (Oct 9, 6:53 am)21% (Oct 11, 2:53 pm)29.62 "Hg (Oct 19, 3:56 am)
Average52 °F72%30.06 "Hg
* Reported Oct 7 11:39 pm — Oct 22 11:53 pm, Battle Ground. Weather by CustomWeather, © 2019

Note: Actual official high and low records may vary slightly from our data, if they occured in-between our weather recording intervals... More about our weather records

Advertising

Battle Ground Weather History for the Previous 24 Hours

Scroll right to see more
 ConditionsComfort  
Time TempWeatherWind HumidityBarometerVisibility
11:53 pm
Tue, Oct 22
45 °FClear.No wind90%30.44 "Hg10 mi
10:53 pm50 °FClear.No wind80%30.42 "Hg10 mi
9:53 pm48 °FClear.No wind83%30.40 "Hg10 mi
8:53 pm54 °FClear.No wind72%30.41 "Hg10 mi
7:53 pm57 °FClear.3 mph67%30.41 "Hg10 mi
6:53 pm60 °FClear.No wind62%30.41 "Hg10 mi
5:53 pm61 °FSunny.No wind56%30.41 "Hg10 mi
4:53 pm63 °FSunny.3 mph54%30.40 "Hg10 mi
3:53 pm63 °FSunny.7 mph52%30.40 "Hg10 mi
2:53 pm64 °FSunny.5 mph54%30.40 "Hg10 mi
1:53 pm63 °FSunny.8 mph54%30.40 "Hg10 mi
12:53 pm61 °FSunny.7 mph58%30.40 "Hg10 mi
11:53 am61 °FOvercast.10 mph60%30.40 "Hg10 mi
10:53 am60 °FPartly sunny.7 mph67%30.39 "Hg10 mi
9:53 am58 °FOvercast.5 mph81%30.38 "Hg10 mi
8:53 am59 °FOvercast.No wind84%30.36 "Hg10 mi
8:29 am58 °FOvercast.No wind90%30.35 "Hg10 mi
7:53 am59 °FOvercast.No wind87%30.33 "Hg10 mi
7:18 am59 °FMostly cloudy.6 mph90%30.33 "Hg10 mi
7:09 am59 °FLight rain. Overcast.5 mph93%30.32 "Hg8 mi
6:53 am60 °FLight rain. Fog.5 mph86%30.31 "Hg5 mi
6:12 am60 °FOvercast.3 mph86%30.29 "Hg10 mi
5:53 am59 °FOvercast.5 mph90%30.27 "Hg10 mi
4:53 am60 °FLight rain. Overcast.3 mph86%30.25 "Hg8 mi
4:35 am60 °FLight rain. Mostly cloudy.5 mph86%30.24 "Hg10 mi
3:53 am61 °FLight rain. Mostly cloudy.6 mph81%30.25 "Hg10 mi
2:53 am61 °FOvercast.5 mph78%30.26 "Hg10 mi
1:53 am61 °FMostly cloudy.6 mph78%30.25 "Hg10 mi
Weather by CustomWeather, © 2019

See weather overview